Location: Gebenbach
(49.5378°N, 11.8735°E)
Time: 02:45:24
(UTC+00:00)

FALCON 9 DEB - Pass Details

Date: 29 October 2020
Orbit: 378 x 396 km, 53.0° (Epoch: 27 November)

Event Time Altitude Azimuth Distance (km) Brightness Sun altitude
Rises 16:50:04 0° 242° (WSW) 2,303 8.4 -9.4°
Reaches altitude 10° 16:52:08 10° 241° (WSW) 1,445 7.1 -9.8°
Maximum altitude 16:55:22 80° 156° (SSE) 408 2.9 -10.3°
Enters shadow 16:57:47 17° 69° (ENE) 1,111 4.6 -10.7°
